Location: ???????
(55.3754°N, 39.3545°E)
Time: 10:07:42
(UTC+00:00)

Cosmos 2278 Rocket - Pass Details

Date: 14 April 2026
Orbit: 839 x 845 km, 71.0° (Epoch: 19 May)

Event Time Altitude Azimuth Distance (km) Brightness Sun altitude
Rises 17:09:14 0° 325° (NW) 3,419 6.6 -6.5°
Reaches altitude 10° 17:11:42 10° 328° (NNW) 2,480 5.7 -6.8°
Maximum altitude 17:17:24 75° 53° (NE) 879 2.3 -7.5°
Drops below altitude 10° 17:23:05 10° 140° (SE) 2,464 4.0 -8.2°
Enters shadow 17:23:27 - 140° (SE) 2,606 4.2 -8.3°
